Location: Zapote
(9.9191°N, 84.0597°W)
Time: 22:01:30
(UTC-06:00)

N. Korean satellite - Visible Passes

Search period start: 04 April 2020 00:00
Search period end: 14 April 2020 00:00
Orbit: 454 x 507 km, 97.2° (Epoch: 04 April)

Date Brightness Start Highest point End Pass type
(mag) Time Alt. Az. Time Alt. Az. Time Alt. Az.
04 Apr 9.6 04:23:36 10° ENE 04:25:53 17° E 04:28:11 10° SE visible
06 Apr 6.4 05:04:32 10° N 05:07:56 83° WNW 05:11:23 10° SSW visible
07 Apr 8.4 04:39:17 10° NE 04:42:22 32° E 04:45:29 10° SSE visible
08 Apr 9.8 04:15:19 10° ENE 04:16:48 12° E 04:18:17 10° SE visible
10 Apr 6.9 04:55:26 10° NNE 04:58:50 66° E 05:02:17 10° S visible
11 Apr 9.1 04:30:30 10° NE 04:33:16 23° E 04:36:05 10° SSE visible
